Regional Weather Roundup
Issued by NWS

Home | Current Version | Previous Version | Graphics & Text | Print | Product List | Glossary On
Versions: 1 2 3 4 5 6 7 8 9 10 11 12 13 14 15 16 17 18 19 20 21 22 23 24 25 26 27 28 29 30 31 32 33 34 35 36 37 38 39 40 41 42 43 44 45 46 47 48 49 50
793
ASUS43 KLSX 302207
RWRMO

WEATHER SUMMARY FOR MISSOURI
NATIONAL WEATHER SERVICE SPRINGFIELD MO
500 PM CDT FRI SEP 30 2016

NOTE: "FAIR" INDICATES FEW OR NO CLOUDS BELOW 12,000 FEET WITH NO
       SIGNIFICANT WEATHER AND/OR OBSTRUCTIONS TO VISIBILITY.
       CURRENT SKY AND/OR WEATHER CONDITIONS ARE NOT AVAILABLE FOR
       CHILLICOTHE AND FARMINGTON.

MOZ001>031-035>038-043-044-053-054-302300-
...NORTHERN AND WESTERN MISSOURI...

CITY           SKY/WX    TMP DP  RH WIND       PRES   REMARKS
KANSAS CTY INT MOSUNNY   72  51  47 N10       30.13F
KANSAS C DTWN  SUNNY     75  47  36 N12       30.11F
LEE`S SUMMIT   SUNNY     73  48  41 N10       30.12F
ST JOSEPH      SUNNY     75  48  38 N8        30.13F
CHILLICOTHE      N/A     68  54  60 N8        30.14F
KIRKSVILLE     CLOUDY    65  56  72 N10       30.14F

$$
MOZ066>068-077>081-088>096-101>105-302300-
...SOUTHWEST MISSOURI...

CITY           SKY/WX    TMP DP  RH WIND       PRES   REMARKS
SPRINGFIELD    PTSUNNY   73  53  49 NW10      30.11S
JOPLIN         MOSUNNY   74  54  49 NW6       30.12F
BRANSON        PTSUNNY   72  52  49 NW6       30.11F

$$
MOZ032>034-039>042-045>050-055>058-069>072-302300-
...CENTRAL MISSOURI...

CITY           SKY/WX    TMP DP  RH WIND       PRES   REMARKS
COLUMBIA       CLOUDY    66  56  70 N9        30.10F
JEFFERSON CITY CLOUDY    67  56  67 N5        30.09F
ROLLA          CLOUDY    64  55  72 NW10      30.09S
SEDALIA        PTSUNNY   74  52  46 NE12      30.11F
WHITEMAN AFB   MOSUNNY   73  49  41 N9        30.10S
OSAGE BEACH    CLOUDY    69  56  62 NE5       30.10F

$$
MOZ051-052-059>065-302300-
...EAST CENTRAL MISSOURI...

CITY           SKY/WX    TMP DP  RH WIND       PRES   REMARKS
ST LOUIS INTL  PTSUNNY   66  59  78 NW10      30.05F
SPIRIT OF STL  CLOUDY    67  59  75 NW10      30.05F
ST CHARLES     CLOUDY    66  60  81 NW8       30.04F

$$
MOZ072>076-082>087-097>100-106>115-302300-
...SOUTH CENTRAL AND SOUTHEAST MISSOURI...

CITY           SKY/WX    TMP DP  RH WIND       PRES   REMARKS
CAPE GIRARDEAU PTSUNNY   67  59  75 W5        30.02S
FARMINGTON     CLOUDY    64  58  80 NW8       30.06F
POPLAR BLUFF   CLOUDY    68  58  70 NW10      30.05S
WEST PLAINS    CLOUDY    67  54  63 N6        30.11S

$$



USA.gov is the U.S. government's official web portal to all federal, state and local government web resources and services.